Back to catalog

FENGYUN 1C DEB

AlivePO
NORAD 30656·DEBRIS·🇨🇳 China

Launched May 10, 1999 from Taiyuan Satellite Launch Center

Loading…

Next Passes (next 24 hours)

TLE

FreshSource: Space-Track

Epoch: Sep 14, 2026, 05:15 UTC

1 30656U 99025APN 26257.21911733  .00003833  00000-0  10120-2 0  9997
2 30656  99.0190  94.5372 0030725 349.4292  10.6250 14.49277469 10659

Track FENGYUN 1C DEB in real time with AllMySat

Download on the App Store